SCP
0 0 0 0 0 0 0 0 0 0 0 0 0 0 0 0 -0 -0 -0 -0 -0 -0 -0 -0 -0 -0 -0 -0 -0 -0 -0 -0 0 0 0 -0 -0 0 -0 -0 -0 0 -0 0 -0 0 -0
0 0 0 0 0 0 0 0 0 0 0 0 0 0 0 0 -0 -0 -0 -0 -0 -0 -0 -0 -0 -0 0 0 -0 -0 -0 -0 -0 -0 -0 -0 0 0 -0 0 -0 0 -0 -0 -0 -0 0
0 0 0 0 0 0 0 0 0 0 0 0 0 0 0 0 0 -0 -0 -0 -0 -0 -0 -0 -0 -0 0 -0 -0 -0 -0 -0 -0 -0 -0 0 0 -0 0 0 0 0 0 -0 -0 0 0
0 0 0 0 0 0 0 0 0 0 0 0 0 0 0 0 -0 -0 -0 -0 -0 -0 -0 -0 0 -0 -0 -0 0 -0 -0 -0 -0 -0 -0 -0 0 0 -0 -0 0 0 0 0 0 0 0
0 0 0 0 0 0 0 0 0 0 0 0 0 0 0 -0 -0 -0 -0 -0 -0 -0 -0 0 -0 0 -0 0 -0 -0 -0 -0 -0 -0 0 -0 0 -0 -0 0 -0 0 0 -0 -0 0 0
0 0 0 0 0 0 0 0 0 0 0 0 0 0 0 0 -0 -0 -0 -0 -0 0 0 -0 -0 0 0 -0 0 0 0 -0 -0 -0 0 0 0 0 0 0 -0 0 0 0 0 0 0
0 0 0 0 0 0 0 0 0 0 0 0 0 0 -0 -0 -0 -0 0 0 0 0 -0 0 0 0 0 -0 0 -0 0 0 0 0 -0 -0 0 -0 0 0 -0 -0 -0 -0 -0 0 0
0 0 0 0 0 0 0 0 0 0 0 0 0 0 -0 -0 -0 -0 0 0 0 0 -0 -0 -0 -0 -0 0 -0 -0 0 0 0 -0 -0 -0 0 0 0 -0 -0 -0 0 0 0 0 -0
0 0 0 0 0 0 0 0 0 0 0 0 0 0 0 -0 -0 0 0 0 0 -0 0 0 0 0 0 0 -0 -0 -0 -0 -0 -0 -0 0 0 0 0 -0 -0 -0 -0 0 0 0 0
0 0 0 0 0 0 0 0 0 0 0 0 0 0 0 -0 0 0 0 0 0 0 0 0 0 0 0 -0 -0 0 0 0 0 -0 0 0 -0 -0 -0 -0 0 -0 0 -0 -0 -0 0
0 0 0 0 0 0 0 0 0 0 0 0 0 0 0 0 0 0 0 0 0 0 0 0 -0 0 -0 -0 0 0 0 -0 -0 -0 0 -0 0 -0 -0 0 -0 0 0 -0 -0 -0 -0
0 0 0 0 0 0 0 0 0 0 0 0 0 0 0 0 0 0 0 0 0 0 0 0 0 0 0 0 -0 0 -0 0 -0 0 -0 -0 -0 0 0 -0 -0 -0 -0 -0 -0 0 -0
0 0 0 0 0 0 -0 0 0 0 0 0 0 0 0 0 0 0 0 0 0 0 0 0 0 0 0 -0 -0 -0 -0 -0 0 0 0 -0 0 -0 0 -0 0 -0 0 0 -0 0 0
0 0 0 0 0 0 0 0 0 0 0 0 0 -0 0 0 0 0 0 0 0 0 0 -0 -0 -0 -0 -0 -0 -0 -0 0 -0 -0 0 -0 0 0 0 0 0 0 -0 0 0 0 0
0 0 0 0 0 0 0 0 0 0 0 0 0 -0 0 0 0 0 0 0 0 0 0 0 -0 -0 0 0 -0 -0 0 -0 -0 -0 -0 0 0 0 0 0 0 0 0 0 0 0 -0
0 0 0 0 0 0 0 0 0 0 0 0 0 0 0 0 0 0 0 0 0 0 0 0 0 -0 0 -0 -0 -0 0 0 0 -0 0 0 0 0 0 0 0 0 -0 0 0 0 0
0 0 0 0 0 0 0 0 0 0 0 0 0 0 0 0 0 0 0 0 0 0 0 0 0 0 0 0 -0 0 0 0 0 0 0 0 0 0 0 0 0 -0 0 0 0 0 0
0 0 0 0 0 0 0 0 0 0 0 0 0 0 0 0 0 0 0 0 0 0 0 0 0 0 0 0 0 0 0 0 0 0 0 0 0 -0 -0 0 0 0 0 0 0 0 0
0 0 0 0 0 0 0 0 0 0 0 0 0 0 0 0 0 0 0 0 0 0 0 0 0 0 0 0 0 0 0 0 -0 0 0 0 0 0 -0 0 0 0 0 0 0 0 0
0 0 0 0 0 0 0 0 0 0 0 0 0 0 0 0 0 0 0 0 0 0 0 0 0 0 0 0 0 0 0 0 0 0 0 0 0 0 0 0 0 0 0 0 0 0 0
0 0 0 0 0 0 0 0 0 0 0 0 0 0 0 0 0 0 0 0 0 0 0 0 0 0 0 0 0 0 0 0 0 -0 -0 0 0 0 0 0 0 0 0 0 0 0 0
0 0 0 0 0 0 0 0 0 0 0 0 0 0 0 0 0 0 0 0 0 0 0 0 0 0 0 0 0 0 0 0 0 0 0 0 0 0 0 0 0 0 0 0 0 0 0
0 0 0 0 0 0 0 0 0 0 0 0 0 0 0 0 0 0 0 0 0 0 0 0 0 0 0 0 -0 0 0 0 0 0 0 0 0 0 0 0 0 0 0 0 0 0 0
0 0 0 0 0 0 0 0 0 0 0 0 0 0 0 0 0 0 0 0 0 0 0 0 0 0 0 0 0 0 0 0 0 0 0 0 0 0 0 0 0 0 0 0 0 0 0
0 0 0 0 0 0 0 0 0 0 0 0 0 0 0 0 0 0 0 0 0 0 0 -0 0 0 0 0 0 0 0 0 0 0 0 0 0 0 0 0 0 0 0 0 0 0 0
0 0 0 0 0 0 0 0 0 0 0 0 0 0 0 0 0 0 0 0 0 0 0 0 0 0 0 0 0 0 0 0 0 0 0 0 0 0 0 0 0 0 0 0 0 0 0
0 0 0 0 0 0 0 0 0 0 0 0 0 0 0 0 0 0 0 0 0 0 0 0 0 0 0 0 0 0 0 0 0 0 0 0 0 0 0 0 0 0 0 0 0 0 0
0 0 0 0 0 0 0 0 0 0 0 0 0 0 0 0 0 0 0 0 0 0 0 0 0 0 0 0 0 0 0 0 0 0 0 0 0 0 0 0 0 0 0 0 0 0 0
0 0 0 0 0 0 0 0 0 0 0 0 0 0 0 0 0 0 0 0 0 0 0 0 0 0 0 0 0 0 0 0 0 0 0 0 0 0 0 0 0 0 0 0 0 0 0
Wind_Speed_500mb
15 12 9 9 10 10 12 17 20 19 23 25 28 28 31 33 35 37 37 35 30 29 27 21 21 18 16 10 16 10 2 6 10 4 7 22 41 36 11 20 18 8 18 25 31 32 20
15 13 11 10 12 13 14 17 19 22 24 29 31 31 32 35 36 37 36 32 29 27 23 17 16 14 8 10 5 11 2 9 6 15 26 24 31 37 19 28 13 26 24 27 36 43 22
16 14 13 13 13 16 18 20 22 24 27 30 31 33 33 36 36 36 34 30 30 23 17 14 13 13 12 15 11 9 9 8 17 17 29 21 18 22 36 19 26 34 14 19 27 35 10
19 15 14 14 14 17 19 21 24 27 27 30 33 35 36 36 36 35 31 30 25 15 12 11 10 8 12 6 13 14 9 13 10 10 18 19 21 28 35 34 42 17 11 10 19 13 10
21 18 16 16 17 18 20 21 26 27 28 32 34 35 35 35 34 34 30 28 16 11 5 7 1 8 16 11 7 3 10 20 19 14 16 18 19 22 32 12 14 10 18 19 8 10 5
26 23 20 19 17 18 21 23 23 28 30 32 34 36 35 34 31 29 28 24 12 6 5 4 12 13 11 7 8 9 5 14 9 20 20 28 15 6 10 4 10 15 11 11 15 6 16
32 28 23 21 20 20 21 23 25 26 33 34 36 36 33 31 25 25 37 14 14 6 20 17 25 18 12 1 7 9 7 9 17 21 14 34 4 10 5 8 12 13 13 13 13 10 22
37 32 27 24 21 24 24 24 26 26 32 34 36 36 34 28 13 17 28 25 20 20 22 23 27 32 16 8 8 5 5 15 20 14 20 9 11 5 11 11 13 16 12 14 11 13 23
41 36 33 28 24 23 27 26 28 28 31 33 35 36 33 23 4 14 13 19 20 21 10 22 23 25 18 14 16 19 8 16 18 18 21 4 9 5 11 16 12 16 9 10 9 16 14
44 41 37 33 30 26 26 29 28 30 31 33 33 34 33 18 3 18 20 25 25 15 4 8 8 9 20 13 11 3 4 13 9 11 16 5 9 7 17 10 16 8 12 14 16 9 11
48 45 42 38 34 30 29 30 27 31 31 32 32 33 23 26 17 4 19 33 19 6 4 19 14 17 19 17 16 6 11 14 18 22 6 13 7 5 12 10 10 11 14 10 18 16 12
53 49 46 42 38 34 33 31 29 32 30 31 30 33 25 22 21 6 21 17 9 4 6 9 13 13 12 25 6 11 10 13 19 11 15 16 10 2 6 15 16 17 11 17 9 7 6
57 53 49 45 42 38 35 33 30 32 31 32 30 30 28 20 13 18 17 21 4 3 15 9 8 18 19 14 9 13 13 12 5 2 10 17 13 11 11 9 20 15 14 10 12 12 7
62 57 52 47 45 42 36 34 32 33 31 31 30 29 23 18 15 9 18 5 2 17 11 13 14 23 17 16 13 19 8 4 23 18 10 13 8 4 12 8 8 12 12 8 3 5 10
66 61 56 48 46 42 35 34 31 31 30 31 27 25 28 5 9 14 10 2 7 13 9 2 8 9 10 6 7 5 20 16 11 15 10 13 11 5 10 1 5 14 12 6 6 8 8
69 64 57 49 44 42 36 33 29 27 25 27 25 25 10 14 8 2 2 10 6 13 20 12 7 7 13 13 8 9 12 13 12 21 24 13 7 5 5 4 9 10 3 16 10 9 10
72 66 61 53 47 42 38 32 27 23 21 19 16 12 11 2 5 3 5 11 12 15 20 14 13 11 13 15 11 5 13 15 17 17 23 14 10 18 12 11 12 12 11 11 7 10 4
77 72 66 59 52 47 40 33 27 19 17 11 7 6 4 19 4 11 6 8 8 10 3 6 9 11 11 18 19 14 15 9 20 34 8 9 3 7 15 7 21 13 12 12 9 8 3
79 75 70 65 59 52 44 35 29 21 18 9 6 13 11 18 5 6 16 10 9 10 4 4 8 14 16 13 11 17 13 19 38 13 5 11 8 8 19 10 19 12 12 9 7 6 3
79 77 73 68 61 56 48 39 32 25 23 21 6 5 9 18 22 6 8 7 3 12 15 13 12 11 11 12 10 7 15 10 28 13 7 10 5 2 7 13 7 12 17 11 4 6 4
80 75 70 69 64 58 51 44 36 30 27 22 9 11 5 6 11 18 14 11 10 4 11 8 10 11 2 4 1 5 21 15 19 13 4 8 3 13 18 19 16 19 14 11 9 10 10
60 82 70 67 66 62 56 50 42 35 33 30 3 10 22 20 14 15 6 7 10 13 6 0 5 14 16 18 14 15 13 14 8 16 7 5 5 12 12 21 11 17 28 26 25 23 18
58 76 75 66 65 62 59 53 46 41 37 16 8 29 12 19 5 5 7 8 15 4 6 14 14 8 27 19 34 27 24 19 10 7 9 9 6 7 8 18 16 13 16 17 19 25 13
59 72 76 67 63 68 63 59 50 45 45 27 1 6 8 8 6 8 13 25 20 15 13 39 44 20 14 15 20 18 7 6 7 21 10 4 9 3 8 13 8 4 21 25 33 29 30
59 69 76 72 65 67 66 59 51 50 55 33 11 12 10 8 30 19 23 20 17 35 39 43 27 23 15 9 5 1 4 2 7 14 13 10 5 6 4 6 12 11 18 14 10 19 25
67 54 67 80 68 68 65 59 55 52 60 40 16 7 5 13 18 32 21 3 2 11 13 26 17 18 12 7 2 3 8 12 9 8 13 11 6 4 5 4 4 5 18 31 26 6 27
64 51 60 80 71 66 64 60 56 55 59 55 20 18 5 8 27 41 17 12 22 10 9 20 9 8 8 5 4 8 0 5 4 10 8 4 6 10 8 6 6 8 21 30 4 7 22
66 57 66 83 77 68 64 61 57 57 57 64 25 13 11 7 17 24 29 34 17 20 5 33 9 2 4 0 5 5 5 3 4 7 7 6 3 6 9 11 2 23 15 10 5 18 25
76 74 58 81 80 70 65 60 58 57 54 61 22 13 19 6 9 6 17 24 23 21 8 16 15 16 9 3 8 7 9 6 5 1 7 5 8 6 7 5 19 37 38 29 24 25 29
Wind_Direction_500mb
211 222 240 264 282 298 309 312 316 325 329 322 321 330 330 327 323 325 328 330 325 324 325 327 324 325 332 297 276 291 27 24 73 113 315 296 294 292 311 314 342 186 258 308 333 313 256
220 229 242 262 283 297 304 306 318 323 326 327 329 330 330 326 322 325 328 325 322 324 322 322 324 328 319 275 315 334 230 115 12 311 306 300 306 332 300 326 318 287 305 308 289 284 283
230 236 251 267 285 301 311 316 325 326 333 328 329 328 327 323 322 326 327 321 322 321 313 315 318 321 248 261 337 344 9 338 329 293 305 319 350 323 317 315 301 315 312 296 276 260 244
229 242 259 275 289 297 305 315 322 327 330 327 326 328 328 327 324 327 325 323 323 319 305 301 308 315 273 186 223 232 262 287 247 293 293 310 313 296 282 277 293 300 290 281 268 200 206
228 237 250 266 286 299 306 315 322 327 328 325 328 327 327 326 330 332 331 327 325 323 284 281 278 326 284 256 208 220 274 265 245 286 275 272 293 267 283 288 315 299 256 232 231 112 48
225 232 240 255 269 288 300 310 318 321 325 326 328 328 328 328 336 345 352 329 338 3 316 241 228 305 258 244 125 260 249 274 277 282 268 248 250 241 306 80 264 320 350 10 121 132 67
230 233 238 253 269 280 292 303 313 321 323 330 329 329 328 330 345 11 17 27 2 38 318 238 286 259 322 88 340 283 169 234 245 258 260 263 182 262 238 358 323 308 311 359 328 97 72
236 238 240 247 261 279 291 299 309 317 319 329 328 329 327 334 12 41 30 42 18 329 307 260 259 263 276 285 268 201 264 251 241 260 248 299 235 20 328 282 282 296 314 12 338 20 88
239 242 244 247 254 267 284 294 304 313 316 325 326 328 330 336 38 18 36 13 358 330 268 294 220 229 209 221 265 176 197 264 274 287 288 224 152 169 275 292 273 329 48 28 295 314 99
235 243 247 249 257 261 272 285 297 305 312 321 325 328 333 340 316 26 52 355 337 332 324 201 203 240 172 212 265 202 235 298 297 283 330 131 117 335 296 349 45 5 25 347 322 333 271
232 239 245 251 256 265 269 280 294 299 309 317 325 321 334 328 318 2 343 330 340 348 34 156 164 148 185 216 140 169 221 290 264 288 50 282 80 312 348 15 10 269 325 299 280 286 46
235 234 241 249 255 264 271 278 288 294 305 312 318 316 322 314 319 350 344 338 337 32 251 161 132 184 171 225 217 130 222 240 277 301 286 250 102 309 324 299 272 262 298 290 291 28 70
233 236 237 244 252 257 266 274 284 292 302 307 310 309 311 306 295 305 337 343 60 183 165 160 169 166 200 192 146 187 204 216 233 254 315 274 198 166 231 318 4 20 33 347 14 28 302
233 234 239 241 248 254 258 270 282 288 299 303 308 307 298 298 326 350 10 331 273 280 125 193 181 185 196 172 192 217 248 186 29 27 318 347 103 151 14 31 357 339 110 122 339 166 238
230 232 235 238 244 247 250 264 277 289 300 304 309 301 292 8 357 18 320 352 294 334 66 350 281 186 128 80 325 169 83 63 59 26 26 20 342 18 103 32 53 324 18 267 148 302 53
227 228 231 231 236 241 246 258 272 284 298 305 317 320 332 139 226 159 312 259 281 20 345 357 299 229 163 181 241 206 79 33 5 36 6 345 336 358 319 207 221 53 334 29 4 17 342
222 225 226 226 228 233 240 251 264 276 290 306 322 327 167 243 10 245 235 259 323 63 8 10 348 318 325 157 219 61 58 29 14 7 27 35 62 307 359 7 59 2 30 33 88 77 28
224 222 224 225 225 230 235 245 254 260 270 270 293 277 237 182 199 234 223 257 323 90 315 307 295 322 24 33 40 76 72 79 9 32 25 332 50 312 274 306 40 10 93 97 109 320 178
220 223 223 223 223 225 229 235 240 238 238 226 253 269 242 171 224 260 290 298 339 335 203 306 316 8 15 41 66 105 105 48 66 56 30 322 352 350 338 21 7 19 5 34 100 86 278
221 219 222 222 221 221 222 225 226 225 222 211 277 288 177 197 247 281 309 263 212 325 325 20 2 31 17 33 49 1 116 87 82 86 36 19 358 124 214 257 297 343 327 317 102 120 208
221 218 218 221 219 217 216 215 214 215 212 200 228 260 328 203 237 234 278 302 202 165 350 324 17 324 315 6 307 236 125 124 119 125 104 84 346 9 329 321 300 271 284 5 16 67 84
217 218 215 218 216 213 211 207 204 205 204 201 261 356 337 304 315 200 247 300 304 154 206 97 290 268 80 68 69 52 62 40 42 41 62 46 309 359 312 283 336 21 48 52 46 39 26
225 208 213 214 216 211 207 205 202 202 192 197 243 286 277 285 267 11 213 257 296 238 59 35 211 46 64 63 70 67 72 70 74 86 39 12 12 353 279 333 323 60 13 40 58 40 36
219 207 208 211 214 210 205 204 199 196 189 192 125 316 292 278 276 203 239 239 268 304 129 55 54 96 100 80 70 60 30 106 144 97 109 9 336 283 265 326 67 44 33 45 70 46 31
208 200 207 207 208 205 202 203 198 194 188 184 148 49 338 304 324 302 238 198 227 76 79 75 51 51 70 52 64 111 325 331 201 143 139 97 21 324 43 333 143 41 27 23 55 42 25
207 203 203 206 204 202 201 198 197 194 192 181 153 119 299 305 19 345 303 45 129 121 68 99 71 71 46 21 194 234 203 180 166 135 131 132 149 134 318 266 342 343 15 339 319 81 15
205 207 200 203 201 199 197 197 196 193 192 187 179 187 220 313 21 22 26 328 355 159 114 116 99 62 48 15 270 230 231 76 60 129 188 198 252 215 263 250 124 13 26 326 343 273 18
203 208 204 201 198 196 194 194 193 192 195 191 190 193 198 306 28 38 38 43 19 23 81 131 84 40 80 84 254 261 97 7 16 39 96 104 81 343 342 32 26 24 50 76 124 36 16
198 205 189 194 196 196 194 192 190 192 195 190 187 215 194 279 337 25 47 64 54 37 36 139 73 100 40 15 357 14 20 41 111 242 48 82 141 156 107 173 82 78 92 71 49 23 358
Wind_Speed_850mb
15 12 9 9 10 10 12 17 20 19 23 25 28 28 31 33 35 37 37 35 30 29 27 21 21 18 16 10 16 10 2 6 10 4 7 22 41 36 11 20 18 8 18 25 31 32 20
15 13 11 10 12 13 14 17 19 22 24 29 31 31 32 35 36 37 36 32 29 27 23 17 16 14 8 10 5 11 2 9 6 15 26 24 31 37 19 28 13 26 24 27 36 43 22
16 14 13 13 13 16 18 20 22 24 27 30 31 33 33 36 36 36 34 30 30 23 17 14 13 13 12 15 11 9 9 8 17 17 29 21 18 22 36 19 26 34 14 19 27 35 10
19 15 14 14 14 17 19 21 24 27 27 30 33 35 36 36 36 35 31 30 25 15 12 11 10 8 12 6 13 14 9 13 10 10 18 19 21 28 35 34 42 17 11 10 19 13 10
21 18 16 16 17 18 20 21 26 27 28 32 34 35 35 35 34 34 30 28 16 11 5 7 1 8 16 11 7 3 10 20 19 14 16 18 19 22 32 12 14 10 18 19 8 10 5
26 23 20 19 17 18 21 23 23 28 30 32 34 36 35 34 31 29 28 24 12 6 5 4 12 13 11 7 8 9 5 14 9 20 20 28 15 6 10 4 10 15 11 11 15 6 16
32 28 23 21 20 20 21 23 25 26 33 34 36 36 33 31 25 25 37 14 14 6 20 17 25 18 12 1 7 9 7 9 17 21 14 34 4 10 5 8 12 13 13 13 13 10 22
37 32 27 24 21 24 24 24 26 26 32 34 36 36 34 28 13 17 28 25 20 20 22 23 27 32 16 8 8 5 5 15 20 14 20 9 11 5 11 11 13 16 12 14 11 13 23
41 36 33 28 24 23 27 26 28 28 31 33 35 36 33 23 4 14 13 19 20 21 10 22 23 25 18 14 16 19 8 16 18 18 21 4 9 5 11 16 12 16 9 10 9 16 14
44 41 37 33 30 26 26 29 28 30 31 33 33 34 33 18 3 18 20 25 25 15 4 8 8 9 20 13 11 3 4 13 9 11 16 5 9 7 17 10 16 8 12 14 16 9 11
48 45 42 38 34 30 29 30 27 31 31 32 32 33 23 26 17 4 19 33 19 6 4 19 14 17 19 17 16 6 11 14 18 22 6 13 7 5 12 10 10 11 14 10 18 16 12
53 49 46 42 38 34 33 31 29 32 30 31 30 33 25 22 21 6 21 17 9 4 6 9 13 13 12 25 6 11 10 13 19 11 15 16 10 2 6 15 16 17 11 17 9 7 6
57 53 49 45 42 38 35 33 30 32 31 32 30 30 28 20 13 18 17 21 4 3 15 9 8 18 19 14 9 13 13 12 5 2 10 17 13 11 11 9 20 15 14 10 12 12 7
62 57 52 47 45 42 36 34 32 33 31 31 30 29 23 18 15 9 18 5 2 17 11 13 14 23 17 16 13 19 8 4 23 18 10 13 8 4 12 8 8 12 12 8 3 5 10
66 61 56 48 46 42 35 34 31 31 30 31 27 25 28 5 9 14 10 2 7 13 9 2 8 9 10 6 7 5 20 16 11 15 10 13 11 5 10 1 5 14 12 6 6 8 8
69 64 57 49 44 42 36 33 29 27 25 27 25 25 10 14 8 2 2 10 6 13 20 12 7 7 13 13 8 9 12 13 12 21 24 13 7 5 5 4 9 10 3 16 10 9 10
72 66 61 53 47 42 38 32 27 23 21 19 16 12 11 2 5 3 5 11 12 15 20 14 13 11 13 15 11 5 13 15 17 17 23 14 10 18 12 11 12 12 11 11 7 10 4
77 72 66 59 52 47 40 33 27 19 17 11 7 6 4 19 4 11 6 8 8 10 3 6 9 11 11 18 19 14 15 9 20 34 8 9 3 7 15 7 21 13 12 12 9 8 3
79 75 70 65 59 52 44 35 29 21 18 9 6 13 11 18 5 6 16 10 9 10 4 4 8 14 16 13 11 17 13 19 38 13 5 11 8 8 19 10 19 12 12 9 7 6 3
79 77 73 68 61 56 48 39 32 25 23 21 6 5 9 18 22 6 8 7 3 12 15 13 12 11 11 12 10 7 15 10 28 13 7 10 5 2 7 13 7 12 17 11 4 6 4
80 75 70 69 64 58 51 44 36 30 27 22 9 11 5 6 11 18 14 11 10 4 11 8 10 11 2 4 1 5 21 15 19 13 4 8 3 13 18 19 16 19 14 11 9 10 10
60 82 70 67 66 62 56 50 42 35 33 30 3 10 22 20 14 15 6 7 10 13 6 0 5 14 16 18 14 15 13 14 8 16 7 5 5 12 12 21 11 17 28 26 25 23 18
58 76 75 66 65 62 59 53 46 41 37 16 8 29 12 19 5 5 7 8 15 4 6 14 14 8 27 19 34 27 24 19 10 7 9 9 6 7 8 18 16 13 16 17 19 25 13
59 72 76 67 63 68 63 59 50 45 45 27 1 6 8 8 6 8 13 25 20 15 13 39 44 20 14 15 20 18 7 6 7 21 10 4 9 3 8 13 8 4 21 25 33 29 30
59 69 76 72 65 67 66 59 51 50 55 33 11 12 10 8 30 19 23 20 17 35 39 43 27 23 15 9 5 1 4 2 7 14 13 10 5 6 4 6 12 11 18 14 10 19 25
67 54 67 80 68 68 65 59 55 52 60 40 16 7 5 13 18 32 21 3 2 11 13 26 17 18 12 7 2 3 8 12 9 8 13 11 6 4 5 4 4 5 18 31 26 6 27
64 51 60 80 71 66 64 60 56 55 59 55 20 18 5 8 27 41 17 12 22 10 9 20 9 8 8 5 4 8 0 5 4 10 8 4 6 10 8 6 6 8 21 30 4 7 22
66 57 66 83 77 68 64 61 57 57 57 64 25 13 11 7 17 24 29 34 17 20 5 33 9 2 4 0 5 5 5 3 4 7 7 6 3 6 9 11 2 23 15 10 5 18 25
76 74 58 81 80 70 65 60 58 57 54 61 22 13 19 6 9 6 17 24 23 21 8 16 15 16 9 3 8 7 9 6 5 1 7 5 8 6 7 5 19 37 38 29 24 25 29
Wind_Direction_850mb
211 222 240 264 282 298 309 312 316 325 329 322 321 330 330 327 323 325 328 330 325 324 325 327 324 325 332 297 276 291 27 24 73 113 315 296 294 292 311 314 342 186 258 308 333 313 256
220 229 242 262 283 297 304 306 318 323 326 327 329 330 330 326 322 325 328 325 322 324 322 322 324 328 319 275 315 334 230 115 12 311 306 300 306 332 300 326 318 287 305 308 289 284 283
230 236 251 267 285 301 311 316 325 326 333 328 329 328 327 323 322 326 327 321 322 321 313 315 318 321 248 261 337 344 9 338 329 293 305 319 350 323 317 315 301 315 312 296 276 260 244
229 242 259 275 289 297 305 315 322 327 330 327 326 328 328 327 324 327 325 323 323 319 305 301 308 315 273 186 223 232 262 287 247 293 293 310 313 296 282 277 293 300 290 281 268 200 206
228 237 250 266 286 299 306 315 322 327 328 325 328 327 327 326 330 332 331 327 325 323 284 281 278 326 284 256 208 220 274 265 245 286 275 272 293 267 283 288 315 299 256 232 231 112 48
225 232 240 255 269 288 300 310 318 321 325 326 328 328 328 328 336 345 352 329 338 3 316 241 228 305 258 244 125 260 249 274 277 282 268 248 250 241 306 80 264 320 350 10 121 132 67
230 233 238 253 269 280 292 303 313 321 323 330 329 329 328 330 345 11 17 27 2 38 318 238 286 259 322 88 340 283 169 234 245 258 260 263 182 262 238 358 323 308 311 359 328 97 72
236 238 240 247 261 279 291 299 309 317 319 329 328 329 327 334 12 41 30 42 18 329 307 260 259 263 276 285 268 201 264 251 241 260 248 299 235 20 328 282 282 296 314 12 338 20 88
239 242 244 247 254 267 284 294 304 313 316 325 326 328 330 336 38 18 36 13 358 330 268 294 220 229 209 221 265 176 197 264 274 287 288 224 152 169 275 292 273 329 48 28 295 314 99
235 243 247 249 257 261 272 285 297 305 312 321 325 328 333 340 316 26 52 355 337 332 324 201 203 240 172 212 265 202 235 298 297 283 330 131 117 335 296 349 45 5 25 347 322 333 271
232 239 245 251 256 265 269 280 294 299 309 317 325 321 334 328 318 2 343 330 340 348 34 156 164 148 185 216 140 169 221 290 264 288 50 282 80 312 348 15 10 269 325 299 280 286 46
235 234 241 249 255 264 271 278 288 294 305 312 318 316 322 314 319 350 344 338 337 32 251 161 132 184 171 225 217 130 222 240 277 301 286 250 102 309 324 299 272 262 298 290 291 28 70
233 236 237 244 252 257 266 274 284 292 302 307 310 309 311 306 295 305 337 343 60 183 165 160 169 166 200 192 146 187 204 216 233 254 315 274 198 166 231 318 4 20 33 347 14 28 302
233 234 239 241 248 254 258 270 282 288 299 303 308 307 298 298 326 350 10 331 273 280 125 193 181 185 196 172 192 217 248 186 29 27 318 347 103 151 14 31 357 339 110 122 339 166 238
230 232 235 238 244 247 250 264 277 289 300 304 309 301 292 8 357 18 320 352 294 334 66 350 281 186 128 80 325 169 83 63 59 26 26 20 342 18 103 32 53 324 18 267 148 302 53
227 228 231 231 236 241 246 258 272 284 298 305 317 320 332 139 226 159 312 259 281 20 345 357 299 229 163 181 241 206 79 33 5 36 6 345 336 358 319 207 221 53 334 29 4 17 342
222 225 226 226 228 233 240 251 264 276 290 306 322 327 167 243 10 245 235 259 323 63 8 10 348 318 325 157 219 61 58 29 14 7 27 35 62 307 359 7 59 2 30 33 88 77 28
224 222 224 225 225 230 235 245 254 260 270 270 293 277 237 182 199 234 223 257 323 90 315 307 295 322 24 33 40 76 72 79 9 32 25 332 50 312 274 306 40 10 93 97 109 320 178
220 223 223 223 223 225 229 235 240 238 238 226 253 269 242 171 224 260 290 298 339 335 203 306 316 8 15 41 66 105 105 48 66 56 30 322 352 350 338 21 7 19 5 34 100 86 278
221 219 222 222 221 221 222 225 226 225 222 211 277 288 177 197 247 281 309 263 212 325 325 20 2 31 17 33 49 1 116 87 82 86 36 19 358 124 214 257 297 343 327 317 102 120 208
221 218 218 221 219 217 216 215 214 215 212 200 228 260 328 203 237 234 278 302 202 165 350 324 17 324 315 6 307 236 125 124 119 125 104 84 346 9 329 321 300 271 284 5 16 67 84
217 218 215 218 216 213 211 207 204 205 204 201 261 356 337 304 315 200 247 300 304 154 206 97 290 268 80 68 69 52 62 40 42 41 62 46 309 359 312 283 336 21 48 52 46 39 26
225 208 213 214 216 211 207 205 202 202 192 197 243 286 277 285 267 11 213 257 296 238 59 35 211 46 64 63 70 67 72 70 74 86 39 12 12 353 279 333 323 60 13 40 58 40 36
219 207 208 211 214 210 205 204 199 196 189 192 125 316 292 278 276 203 239 239 268 304 129 55 54 96 100 80 70 60 30 106 144 97 109 9 336 283 265 326 67 44 33 45 70 46 31
208 200 207 207 208 205 202 203 198 194 188 184 148 49 338 304 324 302 238 198 227 76 79 75 51 51 70 52 64 111 325 331 201 143 139 97 21 324 43 333 143 41 27 23 55 42 25
207 203 203 206 204 202 201 198 197 194 192 181 153 119 299 305 19 345 303 45 129 121 68 99 71 71 46 21 194 234 203 180 166 135 131 132 149 134 318 266 342 343 15 339 319 81 15
205 207 200 203 201 199 197 197 196 193 192 187 179 187 220 313 21 22 26 328 355 159 114 116 99 62 48 15 270 230 231 76 60 129 188 198 252 215 263 250 124 13 26 326 343 273 18
203 208 204 201 198 196 194 194 193 192 195 191 190 193 198 306 28 38 38 43 19 23 81 131 84 40 80 84 254 261 97 7 16 39 96 104 81 343 342 32 26 24 50 76 124 36 16
198 205 189 194 196 196 194 192 190 192 195 190 187 215 194 279 337 25 47 64 54 37 36 139 73 100 40 15 357 14 20 41 111 242 48 82 141 156 107 173 82 78 92 71 49 23 358